FW7008 Weather Reports


Display with metric or nautical units.
time (UTC)temp
F
wind
direction
speed
MPH
gust
MPH
rain 1hr
in
rain 24hr
in
rain mn
in
humidity
%
barometer
mb
20260906220611 72 356 0.0 0.0 0.05 0.04 0.04 99 1013.9
20260906220106 72 277 0.0 0.0 0.05 0.04 0.04 99 1013.9
20260906215605 72 299 0.0 0.0 0.00 0.03 0.03 99 1013.5
20260906215103 72 317 0.0 0.0 0.00 0.03 0.03 99 1013.5
20260906214601 72 310 0.0 0.0 0.00 0.03 0.03 99 1013.9
20260906214056 72 18 0.0 0.0 0.00 0.03 0.03 99 1013.9
20260906213555 72 341 0.0 0.0 0.07 0.03 0.03 99 1013.9
20260906213050 72 352 0.0 0.0 0.07 0.03 0.03 99 1014.2
20260906212543 71 8 0.0 0.0 0.00 0.02 0.02 99 1013.9
20260906212039 72 21 0.0 0.0 0.00 0.02 0.02 99 1013.9
20260906211539 71 16 0.0 0.0 0.00 0.02 0.02 99 1013.5
20260906211035 71 9 0.0 0.0 0.00 0.02 0.02 99 1013.5
20260906210530 71 6 0.0 0.0 0.00 0.02 0.02 99 1013.9
20260906210030 71 11 0.0 0.0 0.00 0.02 0.02 99 1013.9
20260906205525 71 50 0.0 0.0 0.00 0.02 0.02 99 1014.2
20260906205021 71 7 0.0 0.0 0.00 0.02 0.02 99 1013.9
20260906204520 71 341 0.0 0.0 0.00 0.02 0.02 99 1013.9
20260906204015 70 26 0.0 0.0 0.00 0.02 0.02 99 1013.9
20260906203510 70 33 0.0 0.0 0.00 0.02 0.02 99 1013.5
20260906203009 70 2 0.0 0.0 0.00 0.02 0.02 99 1014.2
20260906202506 70 10 0.0 0.0 0.00 0.02 0.02 99 1014.2
20260906202001 70 26 0.0 0.0 0.00 0.02 0.02 99 1014.2
20260906201455 70 13 0.0 0.0 0.00 0.02 0.02 99 1014.2
20260906200950 70 28 0.0 0.0 0.00 0.02 0.02 99 1014.6
20260906200446 69 28 0.0 0.0 0.00 0.02 0.02 99 1014.9
20260906195946 69 42 0.0 0.0 0.00 0.02 0.02 99 1014.9
20260906195442 69 40 0.0 0.0 0.05 0.02 0.02 99 1014.9
20260906194938 69 18 0.0 0.0 0.05 0.02 0.02 99 1014.6
20260906194434 69 17 0.0 0.0 0.00 0.01 0.01 99 1014.9
20260906193929 69 281 0.0 0.0 0.00 0.01 0.01 99 1014.9
20260906193430 69 353 0.0 0.0 0.00 0.01 0.01 99 1015.2
20260906192925 69 180 0.0 0.0 0.00 0.01 0.01 99 1015.6
20260906192420 69 158 0.0 0.0 0.00 0.01 0.01 99 1015.6
20260906191919 69 90 0.0 0.0 0.00 0.01 0.01 99 1015.6
20260906191415 69 356 0.0 0.0 0.00 0.01 0.01 99 1015.2
20260906190914 69 2 0.0 0.0 0.00 0.01 0.01 99 1015.2
20260906190412 69 49 0.0 0.0 0.00 0.01 0.01 99 1015.2
20260906185908 69 18 0.0 0.0 0.00 0.01 0.01 99 1015.2
20260906185407 69 14 0.0 0.0 0.00 0.01 0.01 99 1015.2
20260906184906 68 352 0.0 0.0 0.00 0.01 0.01 99 1015.2
20260906184401 68 273 0.0 0.0 0.00 0.01 0.01 99 1015.9
20260906183857 68 71 0.0 0.0 0.00 0.01 0.01 99 1016.2
20260906183353 68 98 0.0 0.0 0.00 0.01 0.01 99 1016.2
20260906182853 68 19 0.0 0.0 0.00 0.01 0.01 99 1015.9
20260906182343 68 14 0.0 0.0 0.00 0.01 0.01 99 1016.2
20260906181838 68 281 0.0 0.0 0.00 0.01 0.01 99 1016.2
20260906181335 68 7 0.0 0.0 0.00 0.01 0.01 99 1015.9
20260906180835 67 8 0.0 0.0 0.00 0.01 0.01 99 1016.2
20260906180330 67 335 0.0 0.0 0.00 0.01 0.01 99 1016.6
20260906175827 67 267 0.0 0.0 0.00 0.01 0.01 99 1016.2
20260906175323 67 352 0.0 0.0 0.00 0.01 0.01 99 1015.9
20260906174822 67 15 0.0 0.0 0.00 0.01 0.01 99 1015.9
20260906174321 67 14 0.0 0.0 0.00 0.01 0.01 99 1016.6
20260906173816 67 7 0.0 0.0 0.00 0.01 0.01 99 1016.6
20260906173312 67 4 0.0 0.0 0.00 0.01 0.01 99 1016.6
20260906172811 67 290 0.0 0.0 0.00 0.01 0.01 99 1016.2
20260906172307 67 356 0.0 0.0 0.00 0.01 0.01 99 1015.9
20260906171807 67 331 0.0 0.0 0.00 0.01 0.01 99 1016.6
20260906171303 67 0 0.0 0.0 0.00 0.01 0.01 99 1015.9
20260906170759 67 8 0.0 0.0 0.00 0.01 0.01 99 1016.2
20260906170255 67 336 0.0 0.0 0.00 0.01 0.01 99 1016.2
20260906165750 67 336 0.0 0.0 0.00 0.01 0.01 99 1016.2
20260906165250 67 9 0.0 0.0 0.00 0.01 0.01 99 1015.6
20260906164749 67 1 0.0 0.0 0.00 0.01 0.01 99 1015.2
20260906164244 67 350 0.0 0.0 0.00 0.01 0.01 99 1014.9
20260906163740 67 339 0.0 0.0 0.00 0.01 0.01 99 1015.2
20260906163236 67 8 0.0 0.0 0.00 0.01 0.01 99 1014.9
20260906162733 67 276 0.0 0.0 0.00 0.01 0.01 99 1015.6
20260906162228 67 350 0.0 0.0 0.00 0.01 0.01 99 1015.2
20260906161727 68 2 0.0 0.0 0.00 0.01 0.01 98 1015.2
20260906161227 68 2 0.0 0.0 0.00 0.01 0.01 98 1015.2
20260906160726 67 344 0.0 0.0 0.00 0.01 0.01 97 1015.2
20260906160225 67 310 0.0 0.0 0.00 0.01 0.01 96 1015.6
20260906155723 68 261 0.0 0.0 0.00 0.01 0.01 96 1015.6
20260906155219 68 246 0.0 0.0 0.00 0.01 0.01 96 1015.2
20260906154714 67 70 0.0 0.0 0.00 0.01 0.01 95 1015.2
20260906154209 67 69 0.0 0.0 0.00 0.01 0.01 95 1014.9
20260906153707 67 70 0.0 0.0 0.00 0.01 0.01 94 1014.9
20260906153201 67 133 0.0 0.0 0.00 0.01 0.01 94 1014.6
20260906152657 66 74 0.0 0.0 0.00 0.01 0.01 94 1014.6
20260906152151 66 66 0.0 0.0 0.00 0.01 0.01 94 1014.2
20260906151645 66 73 0.0 0.0 0.00 0.01 0.01 94 1014.2
20260906151142 67 138 0.0 0.0 0.00 0.01 0.01 95 1014.2
20260906150636 66 99 0.0 0.0 0.00 0.01 0.01 95 1014.2
20260906150132 66 82 0.0 0.0 0.00 0.01 0.01 96 1014.2
20260906145631 66 73 0.0 0.0 0.00 0.01 0.01 95 1013.9
20260906145126 66 116 0.0 0.0 0.00 0.01 0.01 95 1014.2
20260906144625 66 72 0.0 0.0 0.00 0.01 0.01 96 1014.2
20260906144120 66 79 0.0 0.0 0.00 0.01 0.01 95 1013.9
20260906143615 66 91 0.0 0.0 0.00 0.01 0.01 95 1014.2
20260906143112 65 54 0.0 0.0 0.00 0.01 0.01 95 1014.2
20260906142611 65 48 0.0 0.0 0.00 0.01 0.01 95 1013.9
20260906142106 65 35 0.0 0.0 0.00 0.01 0.01 96 1014.2
20260906141605 65 18 0.0 0.0 0.00 0.01 0.01 96 1014.6
20260906141101 65 57 0.0 0.0 0.00 0.01 0.01 96 1014.2
20260906140559 65 66 0.0 0.0 0.00 0.01 0.01 95 1014.6
20260906140054 66 129 0.0 0.0 0.00 0.01 0.01 95 1014.9
20260906135551 66 49 0.0 0.0 0.00 0.01 0.01 96 1013.9
20260906135048 66 16 0.0 0.0 0.00 0.01 0.01 95 1013.5
20260906134543 66 8 0.0 0.0 0.00 0.01 0.01 95 1013.5
20260906134038 67 345 0.0 0.0 0.00 0.01 0.01 93 1013.5
20260906133533 67 279 0.0 0.0 0.00 0.01 0.01 92 1013.5
20260906133029 67 297 0.0 0.0 0.00 0.01 0.01 91 1013.9
20260906132524 67 296 0.0 0.0 0.00 0.01 0.01 92 1013.9
20260906132019 69 214 0.0 1.0 0.00 0.01 0.01 95 1013.9
20260906131514 69 237 0.0 0.0 0.00 0.01 0.01 96 1013.9
20260906131010 69 317 0.0 0.0 0.00 0.01 0.01 95 1013.9
20260906130509 69 286 0.0 0.0 0.00 0.01 0.01 95 1013.9
20260906130004 69 273 0.0 0.0 0.00 0.01 0.01 95 1013.5
20260906125501 69 267 0.0 0.0 0.00 0.01 0.01 96 1013.5
20260906125000 70 248 0.0 0.0 0.00 0.01 0.01 96 1013.5
20260906124456 70 266 0.0 0.0 0.00 0.01 0.01 95 1013.5
20260906123951 69 278 0.0 0.0 0.00 0.01 0.01 94 1013.5
20260906123451 69 270 0.0 0.0 0.00 0.01 0.01 94 1013.5
20260906122950 71 233 0.0 1.0 0.00 0.01 0.01 96 1013.5
20260906122445 71 294 0.0 0.0 0.00 0.01 0.01 96 1013.5
20260906121942 71 254 0.0 0.0 0.00 0.01 0.01 95 1013.2
20260906121438 71 335 0.0 0.0 0.00 0.01 0.01 95 1012.9
20260906120934 71 263 0.0 0.0 0.00 0.01 0.01 94 1013.2
20260906120429 72 347 0.0 0.0 0.00 0.01 0.01 93 1012.5
20260906115925 72 236 0.0 0.0 0.07 0.01 0.01 91 1012.9
20260906115421 73 168 0.0 0.0 0.07 0.01 0.01 89 1012.9
20260906114915 73 80 0.0 0.0 0.00 0.00 0.00 86 1012.9
20260906114409 73 79 0.0 0.0 0.00 0.00 0.00 84 1012.2
20260906113905 73 78 0.0 0.0 0.00 0.00 0.00 82 1012.5
20260906113404 72 54 0.0 0.0 0.00 0.00 0.00 80 1012.2
20260906112900 72 54 0.0 0.0 0.00 0.00 0.00 79 1012.2
20260906112355 72 54 0.0 0.0 0.00 0.00 0.00 77 1012.2
20260906111850 72 54 0.0 0.0 0.00 0.00 0.00 75 1012.5
20260906111349 71 54 0.0 0.0 0.00 0.00 0.00 74 1012.5
20260906110844 71 49 0.0 0.0 0.00 0.00 0.00 74 1012.2
20260906110340 72 49 0.0 0.0 0.00 0.00 0.00 74 1012.2
20260906105839 71 48 0.0 0.0 0.00 0.00 0.00 73 1012.5
20260906105335 71 48 0.0 0.0 0.00 0.00 0.00 73 1012.2
20260906104830 71 48 0.0 0.0 0.00 0.00 0.00 73 1012.5
20260906104329 71 48 0.0 0.0 0.00 0.00 0.00 71 1012.5
20260906103828 71 48 0.0 0.0 0.00 0.00 0.00 72 1012.5
20260906103326 71 48 0.0 0.0 0.00 0.00 0.00 73 1012.5
20260906102822 71 48 0.0 0.0 0.00 0.00 0.00 73 1012.5
20260906102321 71 50 0.0 0.0 0.00 0.00 0.00 72 1012.5
20260906101817 71 56 0.0 0.0 0.00 0.00 0.00 73 1012.2
20260906101312 71 51 0.0 0.0 0.00 0.00 0.00 73 1012.9
20260906100802 71 39 0.0 0.0 0.00 0.00 0.00 74 1012.5
20260906100301 71 28 0.0 0.0 0.00 0.00 0.00 74 1012.2
20260906095756 71 28 0.0 0.0 0.00 0.00 0.00 74 1012.5
20260906095251 71 28 0.0 0.0 0.00 0.00 0.00 74 1012.2
20260906094750 71 28 0.0 0.0 0.00 0.00 0.00 74 1012.5
20260906094245 71 23 0.0 0.0 0.00 0.00 0.00 73 1012.5
20260906093742 71 22 0.0 0.0 0.00 0.00 0.00 73 1012.5
20260906093237 70 42 0.0 0.0 0.00 0.00 0.00 72 1012.5
20260906092732 71 42 0.0 0.0 0.00 0.00 0.00 72 1012.9
20260906092226 70 42 0.0 0.0 0.00 0.00 0.00 72 1012.5
20260906091722 69 43 0.0 0.0 0.00 0.00 0.00 76 1012.5
20260906091218 69 43 0.0 0.0 0.00 0.00 0.00 82 1012.9
20260906090714 69 37 0.0 0.0 0.00 0.00 0.00 87 1012.9
20260906090213 71 35 0.0 0.0 0.00 0.00 0.00 89 1012.5
20260906085713 71 21 0.0 0.0 0.00 0.00 0.00 90 1012.5
20260906085212 71 327 0.0 0.0 0.00 0.00 0.00 90 1012.5
20260906084706 71 320 0.0 0.0 0.00 0.00 0.00 90 1012.5
20260906084201 71 301 0.0 0.0 0.00 0.00 0.00 89 1012.9
20260906083655 71 294 0.0 0.0 0.00 0.00 0.00 89 1012.9
20260906083151 71 295 0.0 0.0 0.00 0.00 0.00 89 1012.9
20260906082646 71 282 0.0 0.0 0.00 0.00 0.00 89 1012.9
20260906082142 71 222 0.0 0.0 0.00 0.00 0.00 89 1012.9
20260906081637 71 221 0.0 0.0 0.00 0.00 0.00 89 1012.9
20260906081132 71 221 0.0 0.0 0.00 0.00 0.00 88 1012.9
20260906080629 71 236 0.0 0.0 0.00 0.00 0.00 88 1012.9
20260906080125 71 246 0.0 0.0 0.00 0.00 0.00 88 1012.9
20260906075624 71 287 0.0 0.0 0.00 0.00 0.00 87 1012.9
20260906075119 71 4 0.0 0.0 0.00 0.00 0.00 87 1012.5
20260906074614 71 314 0.0 0.0 0.00 0.00 0.00 86 1012.9
20260906074107 71 286 0.0 0.0 0.00 0.00 0.00 86 1012.9
20260906073601 71 269 0.0 0.0 0.00 0.00 0.00 86 1012.9
20260906073052 71 260 0.0 0.0 0.00 0.00 0.00 86 1012.9
20260906072546 71 244 0.0 0.0 0.00 0.00 0.00 87 1012.9
20260906072043 71 225 0.0 0.0 0.00 0.00 0.00 87 1012.9
20260906071539 71 248 0.0 0.0 0.00 0.00 0.00 88 1012.9
20260906071034 71 232 0.0 0.0 0.00 0.00 0.00 89 1012.9
20260906070530 71 190 0.0 0.0 0.00 0.00 0.00 89 1012.9
20260906070026 71 238 0.0 0.0 0.00 0.00 0.00 90 1012.9
20260906065525 71 245 0.0 0.0 0.00 0.00 0.00 90 1012.5
20260906065021 71 246 0.0 0.0 0.00 0.00 0.00 90 1012.9
20260906064516 71 245 0.0 0.0 0.00 0.00 0.00 90 1012.5
20260906064011 71 271 0.0 0.0 0.00 0.00 0.00 90 1012.9
20260906063507 71 247 0.0 0.0 0.00 0.00 0.00 90 1012.9
20260906063003 71 237 0.0 0.0 0.00 0.00 0.00 90 1012.9
20260906062456 71 267 0.0 0.0 0.00 0.00 0.00 90 1012.9
20260906061952 71 240 0.0 0.0 0.00 0.00 0.00 90 1012.9
20260906061447 71 237 0.0 0.0 0.00 0.00 0.00 90 1012.9
20260906060942 71 245 0.0 0.0 0.00 0.00 0.00 90 1012.9
20260906060439 71 242 0.0 0.0 0.00 0.00 0.00 91 1012.9
20260906055935 71 242 0.0 0.0 0.00 0.00 0.00 90 1012.9
20260906055430 71 242 0.0 0.0 0.00 0.00 0.00 90 1012.9
20260906054926 71 240 0.0 0.0 0.00 0.00 0.00 90 1012.9
20260906054421 71 251 0.0 0.0 0.00 0.00 0.00 91 1012.9
20260906053917 71 209 0.0 0.0 0.00 0.00 0.00 91 1013.2
20260906053412 71 236 0.0 0.0 0.00 0.00 0.00 91 1013.2
20260906052908 71 234 0.0 0.0 0.00 0.00 0.00 91 1013.2
20260906052404 71 233 0.0 0.0 0.00 0.00 0.00 91 1013.2
20260906051900 71 273 0.0 0.0 0.00 0.00 0.00 91 1013.2
20260906051401 72 263 0.0 0.0 0.00 0.00 0.00 91 1013.5
20260906050856 72 244 0.0 0.0 0.00 0.00 0.00 91 1013.2
20260906050350 72 250 0.0 0.0 0.00 0.00 0.00 91 1013.2
20260906045849 72 205 0.0 0.0 0.00 0.00 0.00 91 1013.5
20260906045344 72 231 0.0 1.0 0.00 0.00 0.00 91 1013.5
20260906044840 72 176 0.0 0.0 0.00 0.00 0.00 91 1013.2
20260906044340 72 245 0.0 0.0 0.00 0.00 0.00 90 1013.2
20260906043836 72 227 0.0 0.0 0.00 0.00 0.00 90 1013.2
20260906043332 72 253 4.0 5.0 0.00 0.00 0.00 90 1013.2
20260906042827 72 230 0.0 0.0 0.00 0.00 0.00 89 1013.2
20260906042325 72 242 0.0 0.0 0.00 0.00 0.00 89 1013.2
20260906041821 72 240 0.0 0.0 0.00 0.00 0.00 89 1013.2
20260906041317 72 239 0.0 0.0 0.00 0.00 0.00 88 1012.9
20260906040811 72 238 4.0 6.0 0.00 0.00 0.00 88 1012.9
20260906040307 72 242 0.0 0.0 0.00 0.00 0.00 89 1013.2
20260906035802 72 234 0.0 0.0 0.00 0.00 0.00 89 1012.9
20260906035257 72 279 0.0 0.0 0.00 0.00 0.00 90 1013.2
20260906034757 72 243 0.0 0.0 0.00 0.00 0.00 91 1012.9
20260906034252 72 248 0.0 0.0 0.00 0.00 0.00 91 1012.9
20260906033748 72 264 0.0 0.0 0.00 0.00 0.00 91 1012.9
20260906033247 72 226 0.0 0.0 0.00 0.00 0.00 91 1012.9
20260906032744 72 262 0.0 0.0 0.00 0.00 0.00 91 1012.9
20260906032243 72 263 0.0 0.0 0.00 0.00 0.00 92 1012.9
20260906031739 72 215 0.0 0.0 0.00 0.00 0.00 91 1012.9
20260906031234 72 235 1.0 6.0 0.00 0.00 0.00 91 1012.5
20260906030729 72 235 0.0 0.0 0.00 0.00 0.00 91 1012.9
20260906030224 72 285 1.0 2.0 0.00 0.00 0.00 91 1012.5
20260906025723 72 242 4.0 6.0 0.00 0.00 0.00 91 1012.5
20260906025218 72 246 0.0 0.0 0.00 0.00 0.00 91 1012.5
20260906024717 72 240 4.0 7.0 0.00 0.00 0.00 91 1012.5
20260906024216 72 274 6.0 7.0 0.00 0.00 0.00 92 1012.5
20260906023712 72 244 0.0 0.0 0.00 0.00 0.00 93 1012.5
20260906023207 73 226 5.0 7.0 0.00 0.00 0.00 93 1012.5
20260906022702 73 218 0.0 0.0 0.00 0.00 0.00 93 1012.5
20260906022157 73 267 5.0 7.0 0.00 0.00 0.00 92 1012.5
20260906021653 73 238 0.0 0.0 0.00 0.00 0.00 92 1012.5
20260906021152 73 248 0.0 0.0 0.00 0.00 0.00 91 1012.5
20260906020647 74 274 7.0 9.0 0.00 0.00 0.00 90 1012.9
20260906020142 74 213 1.0 6.0 0.00 0.00 0.00 90 1012.9
20260906015636 74 229 0.0 0.0 0.00 0.00 0.00 89 1012.5
20260906015134 74 240 0.0 2.0 0.00 0.00 0.00 88 1012.5
20260906014629 74 254 0.0 0.0 0.00 0.00 0.00 87 1012.5
20260906014125 75 238 0.0 0.0 0.00 0.00 0.00 87 1012.5
20260906013620 74 226 2.0 3.0 0.00 0.00 0.00 88 1012.5
20260906013116 74 268 8.0 9.0 0.00 0.00 0.00 88 1012.5
20260906012611 74 298 0.0 3.0 0.00 0.00 0.00 88 1012.5
20260906012111 75 232 8.0 11.0 0.00 0.00 0.00 88 1012.5
20260906011607 75 264 10.0 11.0 0.00 0.00 0.00 87 1012.5
20260906011106 75 256 3.0 5.0 0.00 0.00 0.00 84 1012.5
20260906010556 76 256 8.0 10.0 0.00 0.00 0.00 83 1012.5
20260906010053 77 243 10.0 11.0 0.00 0.00 0.00 83 1012.2
20260906005551 77 269 9.0 10.0 0.00 0.00 0.00 81 1012.5
20260906005050 77 267 6.0 7.0 0.00 0.00 0.00 82 1012.5
20260906004550 75 215 5.0 7.0 0.00 0.00 0.00 83 1012.5
20260906004045 75 243 9.0 13.0 0.00 0.00 0.00 85 1012.5
20260906003540 75 253 11.0 13.0 0.00 0.00 0.00 85 1012.2
20260906003036 76 244 11.0 13.0 0.00 0.00 0.00 83 1012.5
20260906002531 76 257 6.0 8.0 0.00 0.00 0.00 82 1012.2
20260906002026 76 250 5.0 6.0 0.00 0.00 0.00 82 1012.5
20260906001521 76 187 7.0 10.0 0.00 0.00 0.00 81 1012.5
20260906001021 76 227 9.0 11.0 0.00 0.00 0.00 81 1012.2
20260906000517 76 160 7.0 10.0 0.00 0.00 0.00 81 1012.2
20260906000012 76 266 12.0 14.0 0.00 0.00 0.00 80 1012.5
20260905235511 76 253 6.0 8.0 0.00 0.00 0.00 79 1012.2
20260905235007 77 265 12.0 15.0 0.00 0.00 0.00 79 1012.5
20260905234503 77 230 7.0 10.0 0.00 0.00 0.00 78 1012.2
20260905233956 77 242 7.0 9.0 0.00 0.00 0.00 77 1012.5
20260905233452 77 197 9.0 11.0 0.00 0.00 0.00 77 1012.5
20260905232950 78 219 8.0 10.0 0.00 0.00 0.00 77 1012.2
20260905232447 78 225 7.0 8.0 0.00 0.00 0.00 76 1012.2
20260905231942 78 243 7.0 13.0 0.00 0.00 0.00 76 1012.2
20260905231438 79 245 8.0 10.0 0.00 0.00 0.00 75 1012.5
20260905230934 79 228 6.0 8.0 0.00 0.00 0.00 74 1012.5
20260905230433 80 224 6.0 8.0 0.00 0.00 0.00 72 1012.2
20260905225931 80 226 3.0 5.0 0.00 0.00 0.00 72 1012.5
20260905225426 80 248 4.0 6.0 0.00 0.00 0.00 70 1012.9
20260905224921 81 250 9.0 10.0 0.00 0.00 0.00 69 1012.5
20260905224416 80 273 0.0 0.0 0.00 0.00 0.00 70 1012.5
20260905223910 80 271 10.0 11.0 0.00 0.00 0.00 69 1012.9
20260905223409 80 262 6.0 8.0 0.00 0.00 0.00 70 1012.9
20260905222909 81 245 2.0 11.0 0.00 0.00 0.00 70 1012.9
20260905222408 80 275 6.0 7.0 0.00 0.00 0.00 70 1012.9
20260905221904 80 264 9.0 10.0 0.00 0.00 0.00 70 1012.9
20260905221401 80 215 7.0 8.0 0.00 0.00 0.00 72 1012.9
20260905220856 81 235 4.0 8.0 0.00 0.00 0.00 70 1012.9